sat.trackr.live / text

‹ back to catalog

STARLINK-4456

NORAD 53673 · 2022-105AB

PAYLOAD ACTIVE UNKNOWN

§ Identity

Operator
Country
US
Launch date
2022-08-31
Launch site
AFWTR
Launch vehicle
Mass (kg)
RCS (m²)

Purposes: comms

External: N2YO · Heavens-Above · Gunter

§ Orbital elements

Epoch: 2026-05-25T03:37:25.224096Z

Period
95.07 min
Inclination
97.6047°
Eccentricity
0.0002265
Mean motion
15.14705840 rev/d
Perigee alt
520.3 km
Apogee alt
523.4 km
Semi-major
6,900.0 km
B*
1.9712e-4
RAAN
27.0458°
Arg perigee
83.1007°
Mean anomaly
277.0482°
Rev number
20,483

§ Raw data

STARLINK-44561 53673U 22105AB  26145.15098639  .00003583  00000+0  19712-3 0  99942 53673  97.6047  27.0458 0002265  83.1007 277.0482 15.14705840204831

JSON: /api/v1/satellites/53673 · /tle

For live sub-satellite position, see the globe view (requires WebGL).

§ Visibility from observer

Set your observer location to see the next 7 days of passes ≥ 10°. The values pass through the URL so the page stays shareable.

No JS? Fill the form by hand. The geolocation button needs JavaScript.